FW6943 Weather Reports


time (UTC)temp
F
wind
direction
speed
knots
gust
knots
rain 1hr
in
rain 24hr
in
rain mn
in
humidity
%
barometer
mb
20260906164515 77 169 3.5 7.0 0.00 0.01 0.01 64 990.3
20260906163044 76 147 5.2 7.8 0.00 0.01 0.01 64 990.3
20260906161542 76 143 1.7 4.3 0.00 0.01 0.01 65 990.5
20260906160037 75 281 1.7 7.0 0.00 0.01 0.01 66 990.5
20260906154535 74 129 2.6 7.0 0.00 0.01 0.01 67 990.3
20260906153031 74 121 1.7 4.3 0.00 0.01 0.01 67 990.4
20260906151532 73 134 0.0 4.3 0.00 0.01 0.01 69 990.2
20260906150032 72 128 2.6 7.0 0.00 0.01 0.01 69 990.1
20260906144521 71 206 0.0 2.6 0.00 0.01 0.01 74 990.1
20260906143018 70 179 2.6 4.3 0.00 0.01 0.01 74 990.1
20260906141514 69 148 0.9 4.3 0.00 0.01 0.01 79 990.1
20260906140047 67 131 0.0 1.7 0.00 0.01 0.01 84 990.2
20260906134536 66 110 0.9 2.6 0.00 0.01 0.01 85 990.1
20260906133033 66 109 0.0 0.9 0.00 0.01 0.01 86 990.3
20260906131534 65 109 0.0 0.9 0.00 0.01 0.01 86 990.2
20260906130023 64 109 0.0 0.0 0.00 0.01 0.01 86 990.2
20260906124521 64 109 0.0 0.0 0.00 0.01 0.01 86 990.1
20260906123019 63 109 0.0 0.0 0.00 0.01 0.01 86 990.0
20260906121517 63 109 0.0 0.0 0.00 0.01 0.01 86 989.8
20260906120021 63 109 0.0 1.7 0.01 0.01 0.01 86 989.7
20260906114522 63 109 0.0 0.9 0.01 0.01 0.01 86 989.4
20260906113010 64 110 0.0 1.7 0.01 0.02 0.01 86 989.1
20260906111510 64 110 0.0 0.0 0.01 0.02 0.01 86 989.3
20260906110008 63 110 0.0 0.0 0.00 0.01 0.00 86 989.2
20260906104508 63 111 0.0 0.9 0.00 0.01 0.00 86 989.3
20260906103010 63 112 0.0 0.0 0.00 0.01 0.00 86 989.1
20260906101506 63 112 0.0 0.0 0.00 0.01 0.00 86 988.7
20260906100004 63 112 0.0 0.0 0.00 0.01 0.00 86 988.6
20260906094503 63 112 0.0 0.0 0.00 0.01 0.00 86 988.6
20260906093117 63 112 0.0 0.0 0.00 0.01 0.00 86 988.5
20260906091600 63 112 0.0 0.0 0.00 0.01 0.00 85 988.6
20260906090135 63 112 0.0 0.0 0.00 0.01 0.00 85 988.7
20260906084603 63 112 0.0 0.0 0.00 0.01 0.00 85 988.9
20260906083055 63 112 0.0 0.0 0.00 0.01 0.00 85 989.0
20260906081551 63 112 0.0 0.0 0.00 0.01 0.00 85 988.9
20260906074554 63 112 0.0 0.0 0.00 0.01 0.00 85 989.0
20260906073048 64 112 0.0 0.0 0.00 0.01 0.00 85 989.0
20260906071517 64 112 0.0 0.0 0.00 0.01 0.00 85 989.1
20260906070017 64 112 0.0 0.0 0.00 0.01 0.00 85 989.1
20260906064513 64 112 0.0 0.0 0.00 0.01 0.00 85 989.2
20260906063013 64 112 0.0 2.6 0.00 0.01 0.01 85 989.2
20260906061512 64 117 0.0 0.0 0.00 0.01 0.01 83 989.1
20260906060010 64 117 0.0 0.0 0.00 0.01 0.01 83 989.0
20260906054506 64 117 0.0 0.0 0.00 0.01 0.01 83 988.9
20260906053005 65 117 0.0 0.0 0.00 0.01 0.01 83 988.6
20260906051504 65 117 0.0 0.0 0.00 0.01 0.01 82 988.9
20260906050004 65 117 0.0 0.0 0.00 0.01 0.01 82 988.9
20260906044613 65 117 0.0 0.0 0.00 0.01 0.01 82 989.0
20260906043101 66 117 0.0 0.0 0.00 0.01 0.01 81 989.0
20260906041557 66 117 0.0 0.0 0.00 0.01 0.01 80 988.9
20260906040052 67 117 0.0 0.0 0.00 0.01 0.01 80 988.7
20260906034549 67 117 0.0 0.0 0.00 0.01 0.01 80 988.3
20260906033047 68 117 0.0 0.0 0.00 0.01 0.01 79 988.0
20260906031545 69 117 0.0 0.0 0.00 0.01 0.01 79 987.7
20260906030050 69 117 0.0 0.0 0.00 0.01 0.01 79 987.7
20260906024514 70 117 0.0 0.0 0.00 0.01 0.01 79 987.7
20260906023014 70 117 0.0 0.0 0.00 0.01 0.01 79 987.4
20260906021510 71 113 0.0 0.9 0.00 0.01 0.01 78 987.0
20260906020010 71 116 0.0 2.6 0.00 0.01 0.01 78 987.0
20260906014525 72 103 0.0 0.9 0.00 0.01 0.01 78 986.8
20260906013019 72 104 0.0 1.7 0.00 0.01 0.01 78 986.4
20260906011507 72 109 0.0 0.9 0.00 0.01 0.01 77 986.1
20260906010020 73 110 0.0 6.1 0.00 0.01 0.01 77 986.0
20260906004506 73 98 0.0 3.5 0.00 0.01 0.01 77 985.9
20260906003006 73 76 0.0 2.6 0.00 0.01 0.01 77 985.7
20260906001555 74 90 0.0 1.7 0.00 0.01 0.01 78 985.9
20260906000035 74 90 0.0 2.6 0.00 0.01 0.01 78 985.9
20260905234533 75 103 0.0 0.9 0.00 0.01 0.01 77 986.1
20260905233033 75 103 1.7 2.6 0.00 0.01 0.01 76 986.2
20260905231540 76 113 0.0 1.7 0.00 0.01 0.01 74 986.4
20260905230036 77 113 0.0 0.9 0.00 0.01 0.01 74 986.4
20260905224540 77 101 0.0 1.7 0.00 0.01 0.01 72 986.3
20260905223036 78 101 0.0 2.6 0.00 0.01 0.01 70 986.2
20260905221525 78 82 0.9 5.2 0.00 0.01 0.01 68 986.3
20260905220027 79 111 1.7 6.1 0.00 0.01 0.01 66 986.4
20260905214520 79 30 0.9 2.6 0.00 0.01 0.01 69 986.6
20260905213021 79 49 0.0 3.5 0.00 0.01 0.01 68 986.6
20260905211535 79 53 0.9 3.5 0.00 0.01 0.01 69 986.7
20260905210016 79 55 0.0 3.5 0.00 0.01 0.01 70 986.6
20260905204522 78 94 0.9 2.6 0.00 0.01 0.01 70 986.5
20260905203010 78 234 0.0 3.5 0.00 0.01 0.01 71 986.7
20260905201509 78 5 0.9 2.6 0.00 0.01 0.01 73 986.7
20260905200009 78 139 0.9 4.3 0.00 0.01 0.01 72 987.1
20260905194506 77 304 0.9 2.6 0.00 0.01 0.01 73 986.9
20260905193008 77 111 0.0 5.2 0.00 0.01 0.01 73 987.0
20260905191509 76 123 2.6 6.1 0.00 0.01 0.01 74 987.0
20260905190005 76 109 2.6 7.0 0.00 0.01 0.01 75 987.0
20260905184504 76 142 3.5 7.0 0.00 0.01 0.01 74 987.1
20260905183000 77 111 2.6 7.0 0.00 0.01 0.01 75 987.2
20260905181602 77 117 5.2 8.7 0.00 0.01 0.01 74 987.3
20260905180103 77 131 5.2 8.7 0.00 0.01 0.01 75 987.3
20260905174558 76 110 3.5 7.0 0.00 0.01 0.01 75 987.4
20260905173029 76 99 2.6 7.8 0.00 0.01 0.01 75 987.5
20260905171527 77 144 1.7 6.1 0.00 0.01 0.01 75 987.5
20260905170022 77 130 0.9 6.1 0.00 0.01 0.01 75 987.4